This is the latest recevied weather packets stored in our database for station/object IT9IJI-15. If no packets are shown the sender has not sent any weather packets the latest 10 day(s).
| Time | Temp. | Humidity | Pressure | Rain* | Wind** | Luminosity | Snow |
|---|---|---|---|---|---|---|---|
| 1788202299 | 44.44° C | 23% | 893.6 hPa | - | - | - | - |
| 1788201395 | 36.67° C | 24% | 884.5 hPa | - | - | - | - |
| 1788200468 | 44.44° C | 24% | 893.4 hPa | - | - | - | - |
| 1788199575 | 44.44° C | 23% | 893.4 hPa | - | - | - | - |
| 1788198693 | 44.44° C | 24% | 893.5 hPa | - | - | - | - |
| 1788197768 | 44.44° C | 23% | 893.7 hPa | - | - | - | - |
| 1788196868 | 44.44° C | 24% | 893.8 hPa | - | - | - | - |
| 1788195968 | 44.44° C | 24% | 894 hPa | - | - | - | - |
| 1788195068 | 44.44° C | 24% | 893.8 hPa | - | - | - | - |
| 1788194168 | 44.44° C | 24% | 893.8 hPa | - | - | - | - |
| 1788193278 | 36.11° C | 24% | 884.9 hPa | - | - | - | - |
| 1788192344 | 44.44° C | 24% | 894.2 hPa | - | - | - | - |
| 1788191447 | 43.89° C | 24% | 894.8 hPa | - | - | - | - |
| 1788189643 | 43.89° C | 24% | 893.9 hPa | - | - | - | - |
| 1788188743 | 43.89° C | 23% | 894.1 hPa | - | - | - | - |
| 1788187860 | 44.44° C | 23% | 894.1 hPa | - | - | - | - |
| 1788186943 | 43.89° C | 24% | 894.3 hPa | - | - | - | - |
| 1788186051 | 44.44° C | 23% | 894.4 hPa | - | - | - | - |
| 1788185142 | 35.56° C | 24% | 885.2 hPa | - | - | - | - |
| 1788184219 | 43.33° C | 23% | 894.6 hPa | - | - | - | - |
| 1788183319 | 43.33° C | 23% | 894.7 hPa | - | - | - | - |
| 1788182428 | 43.33° C | 22% | 894.6 hPa | - | - | - | - |
| 1788181519 | 43.33° C | 22% | 894.8 hPa | - | - | - | - |
| 1788180619 | 43.33° C | 21% | 894.9 hPa | - | - | - | - |
| 1788178818 | 42.78° C | 21% | 895.1 hPa | - | - | - | - |
* Rain since midnight (hover to see other rain measurements)
** Current wind speed in m/s (hover to see current wind gust speed)